^^

..:: WU History ::..




Lo storico viene creato da WUnderground con i dati che la stazione Meteomincio invia al loro server. L' aggiornamento viene fatto ogni 5 minuti circa, tuttavia possono esserci intervalli pił ampi a causa di errori, interruzioni di servizio o problemi nell' invio tramite FTP.


Storico stazione MeteoMincio
 
Giorno Sommario per Febbario 06, 2023 Unità:  Metrico    Inglese   Entrambi
Giorno Settimana Mese Anno
  Corrente: Max: Min: Media:
Temperatura: 6.6 °C 6.6 °C 2.7 °C 4.1 °C
Dew Point: 0.6 °C 1.5 °C -0.2 °C 0.9 °C
Umidità: 66% 87% 65% 80%
Velocità vento: 14km/h 15km/h 0km/h 6.2km/h
Raffica: 21km/h 21km/h - -
DirezioneEast - - East
Pressione: 1033.5 hPa 1036.5 hPa 1033.5 hPa -
Precipitazioni: 0.00 mm      
 
 
Tabulato Dati per Febbario 06, 2023
Ora Temperatura Dew Point Pressione Direzione Velocità vento Raffica Umidità Intensità pioggia (oraria) Info solare Situazione
00:04 4.3 °C 1.3 °C 1034.4 hPa East 12 km/h 15 km/h 81% 0.00 mm 0.00 W/m2 unknown
00:09 4.3 °C 1.3 °C 1034.5 hPa East 10 km/h 15 km/h 81% 0.00 mm 0.00 W/m2 unknown
00:14 4.3 °C 1.3 °C 1034.5 hPa East 11 km/h 15 km/h 81% 0.00 mm 0.00 W/m2 unknown
00:19 4.3 °C 1.5 °C 1034.6 hPa East 10 km/h 13 km/h 82% 0.00 mm 0.00 W/m2 unknown
00:24 4.3 °C 1.5 °C 1034.6 hPa ENE 8 km/h 13 km/h 82% 0.00 mm 0.00 W/m2 unknown
00:29 4.3 °C 1.5 °C 1034.7 hPa ENE 6 km/h 11 km/h 82% 0.00 mm 0.00 W/m2 unknown
00:34 4.3 °C 1.5 °C 1034.6 hPa NE 8 km/h 11 km/h 82% 0.00 mm 0.00 W/m2 unknown
00:39 4.3 °C 1.5 °C 1034.6 hPa NE 8 km/h 11 km/h 82% 0.00 mm 0.00 W/m2 unknown
00:44 4.3 °C 1.5 °C 1034.6 hPa ENE 7 km/h 11 km/h 82% 0.00 mm 0.00 W/m2 unknown
00:49 4.2 °C 1.4 °C 1034.7 hPa ENE 9 km/h 11 km/h 82% 0.00 mm 0.00 W/m2 unknown
00:54 4.2 °C 1.4 °C 1034.7 hPa ENE 8 km/h 11 km/h 82% 0.00 mm 0.00 W/m2 unknown
00:59 4.1 °C 1.5 °C 1034.7 hPa ENE 12 km/h 17 km/h 83% 0.00 mm 0.00 W/m2 unknown
01:04 4.2 °C 1.5 °C 1034.7 hPa ENE 11 km/h 16 km/h 83% 0.00 mm 0.00 W/m2 unknown
01:09 4.2 °C 1.4 °C 1034.7 hPa ENE 10 km/h 15 km/h 82% 0.00 mm 0.00 W/m2 unknown
01:14 4.2 °C 1.4 °C 1034.7 hPa ENE 8 km/h 15 km/h 82% 0.00 mm 0.00 W/m2 unknown
01:19 4.2 °C 1.4 °C 1034.7 hPa NE 7 km/h 13 km/h 82% 0.00 mm 0.00 W/m2 unknown
01:24 4.2 °C 1.4 °C 1034.8 hPa NE 8 km/h 11 km/h 82% 0.00 mm 0.00 W/m2 unknown
01:29 4.2 °C 1.4 °C 1034.9 hPa NE 6 km/h 11 km/h 82% 0.00 mm 0.00 W/m2 unknown
01:34 4.2 °C 1.4 °C 1034.9 hPa ENE 6 km/h 10 km/h 82% 0.00 mm 0.00 W/m2 unknown
01:39 4.2 °C 1.2 °C 1034.9 hPa ENE 4 km/h 10 km/h 81% 0.00 mm 0.00 W/m2 unknown
01:44 4.2 °C 1.3 °C 1034.9 hPa ENE 6 km/h 11 km/h 82% 0.00 mm 0.00 W/m2 unknown
01:49 4.1 °C 1.3 °C 1034.9 hPa ENE 6 km/h 11 km/h 82% 0.00 mm 0.00 W/m2 unknown
01:54 4.1 °C 1.3 °C 1035.0 hPa ENE 5 km/h 8 km/h 82% 0.00 mm 0.00 W/m2 unknown
01:59 4.1 °C 1.3 °C 1035.0 hPa ENE 6 km/h 8 km/h 82% 0.00 mm 0.00 W/m2 unknown
02:04 4.1 °C 1.3 °C 1035.0 hPa ENE 5 km/h 8 km/h 82% 0.00 mm 0.00 W/m2 unknown
02:09 4.1 °C 1.3 °C 1035.1 hPa ENE 6 km/h 8 km/h 82% 0.00 mm 0.00 W/m2 unknown
02:14 4.0 °C 1.2 °C 1035.1 hPa ENE 4 km/h 8 km/h 82% 0.00 mm 0.00 W/m2 unknown
02:19 4.0 °C 1.4 °C 1035.1 hPa ENE 5 km/h 6 km/h 83% 0.00 mm 0.00 W/m2 unknown
02:24 3.9 °C 1.3 °C 1035.1 hPa East 4 km/h 6 km/h 83% 0.00 mm 0.00 W/m2 unknown
02:29 3.9 °C 1.3 °C 1035.0 hPa East 3 km/h 6 km/h 83% 0.00 mm 0.00 W/m2 unknown
02:34 3.9 °C 1.3 °C 1035.0 hPa ENE 3 km/h 6 km/h 83% 0.00 mm 0.00 W/m2 unknown
02:39 3.9 °C 1.3 °C 1034.9 hPa ENE 3 km/h 6 km/h 83% 0.00 mm 0.00 W/m2 unknown
02:44 3.9 °C 1.3 °C 1034.9 hPa ENE 3 km/h 6 km/h 83% 0.00 mm 0.00 W/m2 unknown
02:49 3.8 °C 1.2 °C 1034.9 hPa ENE 3 km/h 6 km/h 83% 0.00 mm 0.00 W/m2 unknown
02:54 3.8 °C 1.2 °C 1034.9 hPa ENE 3 km/h 6 km/h 83% 0.00 mm 0.00 W/m2 unknown
02:59 3.8 °C 1.2 °C 1034.8 hPa ENE 2 km/h 6 km/h 83% 0.00 mm 0.00 W/m2 unknown
03:04 3.8 °C 1.2 °C 1034.8 hPa ENE 2 km/h 5 km/h 83% 0.00 mm 0.00 W/m2 unknown
03:09 3.8 °C 1.2 °C 1034.9 hPa ENE 2 km/h 4 km/h 83% 0.00 mm 0.00 W/m2 unknown
03:14 3.8 °C 1.2 °C 1035.0 hPa NE 3 km/h 5 km/h 83% 0.00 mm 0.00 W/m2 unknown
03:19 3.8 °C 1.2 °C 1035.0 hPa NE 4 km/h 6 km/h 83% 0.00 mm 0.00 W/m2 unknown
03:24 3.8 °C 1.2 °C 1035.1 hPa ENE 3 km/h 6 km/h 83% 0.00 mm 0.00 W/m2 unknown
03:29 3.9 °C 1.3 °C 1035.1 hPa ENE 3 km/h 6 km/h 83% 0.00 mm 0.00 W/m2 unknown
03:34 3.9 °C 1.1 °C 1035.0 hPa ENE 3 km/h 6 km/h 82% 0.00 mm 0.00 W/m2 unknown
03:39 3.9 °C 1.1 °C 1035.0 hPa ENE 4 km/h 6 km/h 82% 0.00 mm 0.00 W/m2 unknown
03:44 3.9 °C 1.1 °C 1035.1 hPa ENE 3 km/h 6 km/h 82% 0.00 mm 0.00 W/m2 unknown
03:49 3.8 °C 1.2 °C 1035.1 hPa ENE 3 km/h 5 km/h 83% 0.00 mm 0.00 W/m2 unknown
03:54 3.8 °C 1.2 °C 1035.0 hPa ENE 2 km/h 4 km/h 83% 0.00 mm 0.00 W/m2 unknown
03:59 3.8 °C 1.2 °C 1035.2 hPa ENE 4 km/h 6 km/h 83% 0.00 mm 0.00 W/m2 unknown
04:04 3.7 °C 1.1 °C 1035.3 hPa NE 5 km/h 6 km/h 83% 0.00 mm 0.00 W/m2 unknown
04:09 3.8 °C 1.2 °C 1035.3 hPa ENE 3 km/h 6 km/h 83% 0.00 mm 0.00 W/m2 unknown
04:14 3.8 °C 1.2 °C 1035.3 hPa NE 4 km/h 6 km/h 83% 0.00 mm 0.00 W/m2 unknown
04:19 3.8 °C 1.2 °C 1035.3 hPa ENE 3 km/h 6 km/h 83% 0.00 mm 0.00 W/m2 unknown
04:24 3.8 °C 1.2 °C 1035.3 hPa ENE 3 km/h 6 km/h 83% 0.00 mm 0.00 W/m2 unknown
04:29 3.7 °C 1.1 °C 1035.3 hPa ENE 4 km/h 6 km/h 83% 0.00 mm 0.00 W/m2 unknown
04:34 3.7 °C 1.2 °C 1035.2 hPa East 3 km/h 6 km/h 84% 0.00 mm 0.00 W/m2 unknown
04:39 3.6 °C 1.1 °C 1035.2 hPa ESE 3 km/h 5 km/h 84% 0.00 mm 0.00 W/m2 unknown
04:44 3.5 °C 1.1 °C 1035.1 hPa East 5 km/h 8 km/h 84% 0.00 mm 0.00 W/m2 unknown
04:49 3.5 °C 1.1 °C 1035.1 hPa East 5 km/h 8 km/h 84% 0.00 mm 0.00 W/m2 unknown
04:54 3.4 °C 1.0 °C 1035.3 hPa East 5 km/h 10 km/h 84% 0.00 mm 0.00 W/m2 unknown
04:59 3.4 °C 1.0 °C 1035.3 hPa East 6 km/h 10 km/h 84% 0.00 mm 0.00 W/m2 unknown
05:04 3.5 °C 1.2 °C 1035.3 hPa East 6 km/h 11 km/h 85% 0.00 mm 0.00 W/m2 unknown
05:09 3.5 °C 1.2 °C 1035.4 hPa East 6 km/h 11 km/h 85% 0.00 mm 0.00 W/m2 unknown
05:14 3.4 °C 1.2 °C 1035.4 hPa East 5 km/h 8 km/h 85% 0.00 mm 0.00 W/m2 unknown
05:19 3.4 °C 1.1 °C 1035.5 hPa East 6 km/h 11 km/h 85% 0.00 mm 0.00 W/m2 unknown
05:24 3.3 °C 1.2 °C 1035.6 hPa East 8 km/h 11 km/h 86% 0.00 mm 0.00 W/m2 unknown
05:29 3.3 °C 1.2 °C 1035.6 hPa East 7 km/h 11 km/h 86% 0.00 mm 0.00 W/m2 unknown
05:34 3.3 °C 1.2 °C 1035.6 hPa ENE 6 km/h 8 km/h 86% 0.00 mm 0.00 W/m2 unknown
05:39 3.3 °C 1.2 °C 1035.6 hPa ENE 6 km/h 10 km/h 86% 0.00 mm 0.00 W/m2 unknown
05:44 3.2 °C 1.3 °C 1035.6 hPa ENE 7 km/h 10 km/h 87% 0.00 mm 0.00 W/m2 unknown
05:49 3.2 °C 1.3 °C 1035.6 hPa East 8 km/h 13 km/h 87% 0.00 mm 0.00 W/m2 unknown
05:54 3.2 °C 1.3 °C 1035.6 hPa ENE 5 km/h 13 km/h 87% 0.00 mm 0.00 W/m2 unknown
05:59 3.2 °C 1.1 °C 1035.6 hPa East 5 km/h 11 km/h 86% 0.00 mm 0.00 W/m2 unknown
06:04 3.2 °C 1.1 °C 1035.6 hPa East 5 km/h 10 km/h 86% 0.00 mm 0.00 W/m2 unknown
06:09 3.2 °C 1.1 °C 1035.6 hPa East 2 km/h 10 km/h 86% 0.00 mm 0.00 W/m2 unknown
06:14 3.2 °C 1.1 °C 1035.5 hPa East 2 km/h 4 km/h 86% 0.00 mm 0.00 W/m2 unknown
06:19 3.1 °C 1.0 °C 1035.6 hPa East 2 km/h 4 km/h 86% 0.00 mm 0.00 W/m2 unknown
06:24 3.1 °C 1.0 °C 1035.6 hPa East 3 km/h 6 km/h 86% 0.00 mm 0.00 W/m2 unknown
06:29 3.1 °C 0.9 °C 1035.6 hPa East 3 km/h 6 km/h 86% 0.00 mm 0.00 W/m2 unknown
06:34 3.1 °C 0.9 °C 1035.6 hPa East 4 km/h 8 km/h 86% 0.00 mm 0.00 W/m2 unknown
06:39 3.0 °C 0.9 °C 1035.6 hPa East 4 km/h 8 km/h 86% 0.00 mm 0.00 W/m2 unknown
06:44 3.1 °C 0.9 °C 1035.7 hPa East 4 km/h 8 km/h 86% 0.00 mm 0.00 W/m2 unknown
06:49 3.0 °C 0.9 °C 1035.7 hPa East 4 km/h 8 km/h 86% 0.00 mm 0.00 W/m2 unknown
06:54 2.9 °C 0.8 °C 1035.7 hPa East 3 km/h 8 km/h 86% 0.00 mm 0.00 W/m2 unknown
06:59 2.9 °C 0.8 °C 1035.8 hPa East 4 km/h 5 km/h 86% 0.00 mm 0.00 W/m2 unknown
07:04 2.9 °C 0.8 °C 1035.9 hPa ENE 4 km/h 6 km/h 86% 0.00 mm 0.00 W/m2 unknown
07:09 2.8 °C 0.7 °C 1035.9 hPa ENE 3 km/h 6 km/h 86% 0.00 mm 0.00 W/m2 unknown
07:14 2.7 °C 0.6 °C 1036.0 hPa ENE 4 km/h 6 km/h 86% 0.00 mm 0.00 W/m2 unknown
07:19 2.7 °C 0.6 °C 1036.0 hPa ENE 4 km/h 6 km/h 86% 0.00 mm 0.00 W/m2 unknown
07:24 2.7 °C 0.6 °C 1036.1 hPa ENE 5 km/h 6 km/h 86% 0.00 mm 0.00 W/m2 unknown
07:29 2.7 °C 0.6 °C 1036.2 hPa ENE 5 km/h 6 km/h 86% 0.00 mm 0.00 W/m2 unknown
07:34 2.8 °C 0.7 °C 1036.2 hPa ENE 4 km/h 6 km/h 86% 0.00 mm 0.00 W/m2 unknown
07:39 2.7 °C 0.6 °C 1036.2 hPa East 2 km/h 5 km/h 86% 0.00 mm 5.00 W/m2 unknown
07:44 2.7 °C 0.6 °C 1036.3 hPa Calm   3 km/h 86% 0.00 mm 5.00 W/m2 unknown
07:49 2.7 °C 0.6 °C 1036.3 hPa Calm   2 km/h 86% 0.00 mm 9.00 W/m2 unknown
07:54 2.7 °C 0.6 °C 1036.3 hPa ENE 3 km/h 6 km/h 86% 0.00 mm 12.00 W/m2 unknown
07:59 2.7 °C 0.6 °C 1036.3 hPa ENE 3 km/h 6 km/h 86% 0.00 mm 14.00 W/m2 unknown
08:04 2.8 °C 0.7 °C 1036.3 hPa ENE 3 km/h 6 km/h 86% 0.00 mm 19.00 W/m2 unknown
08:09 2.8 °C 0.7 °C 1036.3 hPa NE 5 km/h 6 km/h 86% 0.00 mm 23.00 W/m2 unknown
08:14 2.9 °C 0.8 °C 1036.3 hPa NE 5 km/h 6 km/h 86% 0.00 mm 26.00 W/m2 unknown
08:19 2.9 °C 0.8 °C 1036.3 hPa NE 5 km/h 8 km/h 86% 0.00 mm 32.00 W/m2 unknown
08:24 2.9 °C 1.0 °C 1036.4 hPa ENE 5 km/h 8 km/h 87% 0.00 mm 37.00 W/m2 unknown
08:29 2.9 °C 1.0 °C 1036.4 hPa ENE 5 km/h 7 km/h 87% 0.00 mm 40.00 W/m2 unknown
08:34 3.0 °C 1.1 °C 1036.4 hPa ENE 6 km/h 10 km/h 87% 0.00 mm 46.00 W/m2 unknown
08:39 3.1 °C 1.1 °C 1036.3 hPa East 12 km/h 15 km/h 87% 0.00 mm 46.00 W/m2 unknown
08:44 3.1 °C 1.1 °C 1036.4 hPa East 12 km/h 15 km/h 87% 0.00 mm 44.00 W/m2 unknown
08:49 3.1 °C 1.0 °C 1036.4 hPa East 8 km/h 15 km/h 86% 0.00 mm 51.00 W/m2 unknown
08:54 3.1 °C 1.0 °C 1036.4 hPa East 10 km/h 15 km/h 86% 0.00 mm 60.00 W/m2 unknown
08:59 3.2 °C 0.9 °C 1036.5 hPa East 10 km/h 13 km/h 85% 0.00 mm 69.00 W/m2 unknown
09:04 3.3 °C 1.1 °C 1036.5 hPa East 9 km/h 13 km/h 85% 0.00 mm 67.00 W/m2 unknown
09:09 3.4 °C 1.1 °C 1036.5 hPa East 9 km/h 13 km/h 85% 0.00 mm 74.00 W/m2 unknown
09:14 3.4 °C 0.9 °C 1036.4 hPa East 13 km/h 17 km/h 84% 0.00 mm 76.00 W/m2 unknown
09:19 3.5 °C 0.9 °C 1036.3 hPa East 8 km/h 16 km/h 84% 0.00 mm 81.00 W/m2 unknown
09:24 3.5 °C 0.9 °C 1036.4 hPa East 11 km/h 15 km/h 83% 0.00 mm 86.00 W/m2 unknown
09:29 3.6 °C 1.0 °C 1036.4 hPa East 5 km/h 15 km/h 83% 0.00 mm 84.00 W/m2 unknown
09:34 3.7 °C 1.1 °C 1036.4 hPa East 5 km/h 8 km/h 83% 0.00 mm 86.00 W/m2 unknown
09:39 3.8 °C 1.2 °C 1036.3 hPa ENE 5 km/h 8 km/h 83% 0.00 mm 100.00 W/m2 unknown
09:44 3.9 °C 1.3 °C 1036.2 hPa East 7 km/h 10 km/h 83% 0.00 mm 113.00 W/m2 unknown
09:49 4.1 °C 1.3 °C 1036.3 hPa East 5 km/h 10 km/h 82% 0.00 mm 128.00 W/m2 unknown
09:54 4.2 °C 1.2 °C 1036.3 hPa East 6 km/h 11 km/h 81% 0.00 mm 128.00 W/m2 unknown
09:59 4.3 °C 1.1 °C 1036.3 hPa ESE 4 km/h 11 km/h 80% 0.00 mm 127.00 W/m2 unknown
10:04 4.4 °C 0.9 °C 1036.2 hPa ESE 5 km/h 8 km/h 78% 0.00 mm 113.00 W/m2 unknown
10:09 4.4 °C 0.9 °C 1036.2 hPa SE 3 km/h 8 km/h 78% 0.00 mm 102.00 W/m2 unknown
10:14 4.4 °C 0.8 °C 1036.2 hPa ESE 6 km/h 8 km/h 77% 0.00 mm 109.00 W/m2 unknown
10:19 4.4 °C 0.6 °C 1036.2 hPa SE 7 km/h 10 km/h 76% 0.00 mm 111.00 W/m2 unknown
10:24 4.5 °C 0.4 °C 1036.2 hPa SE 6 km/h 11 km/h 75% 0.00 mm 121.00 W/m2 unknown
10:29 4.4 °C 0.4 °C 1036.2 hPa ESE 7 km/h 11 km/h 75% 0.00 mm 130.00 W/m2 unknown
10:34 4.5 °C 0.4 °C 1036.2 hPa ESE 7 km/h 11 km/h 75% 0.00 mm 141.00 W/m2 unknown
10:39 4.6 °C 0.7 °C 1036.2 hPa SE 4 km/h 11 km/h 76% 0.00 mm 149.00 W/m2 unknown
10:44 4.6 °C 0.6 °C 1036.1 hPa SE 8 km/h 11 km/h 75% 0.00 mm 155.00 W/m2 unknown
10:49 4.7 °C 0.6 °C 1036.1 hPa SSE 3 km/h 10 km/h 75% 0.00 mm 148.00 W/m2 unknown
10:54 4.7 °C 0.6 °C 1036.1 hPa SE 3 km/h 6 km/h 75% 0.00 mm 146.00 W/m2 unknown
10:59 4.7 °C 0.5 °C 1036.0 hPa SSE 6 km/h 8 km/h 74% 0.00 mm 169.00 W/m2 unknown
11:04 4.8 °C 0.7 °C 1035.9 hPa SE 7 km/h 11 km/h 75% 0.00 mm 176.00 W/m2 unknown
11:09 4.9 °C 0.9 °C 1035.9 hPa ESE 8 km/h 11 km/h 75% 0.00 mm 183.00 W/m2 unknown
11:14 5.1 °C 0.9 °C 1035.8 hPa SSE 3 km/h 11 km/h 75% 0.00 mm 190.00 W/m2 unknown
11:19 5.2 °C 0.9 °C 1035.8 hPa SSE 7 km/h 10 km/h 74% 0.00 mm 165.00 W/m2 unknown
11:24 5.1 °C 0.3 °C 1035.7 hPa SSE 9 km/h 15 km/h 71% 0.00 mm 160.00 W/m2 unknown
11:29 5.1 °C 0.1 °C 1035.6 hPa SSE 8 km/h 15 km/h 70% 0.00 mm 179.00 W/m2 unknown
11:34 5.3 °C 0.4 °C 1035.6 hPa SSE 10 km/h 15 km/h 71% 0.00 mm 192.00 W/m2 unknown
11:39 5.3 °C 0.2 °C 1035.6 hPa South 11 km/h 15 km/h 70% 0.00 mm 211.00 W/m2 unknown
11:44 5.3 °C 0.3 °C 1035.5 hPa SSE 11 km/h 15 km/h 70% 0.00 mm 216.00 W/m2 unknown
11:49 5.4 °C 0.3 °C 1035.5 hPa SE 10 km/h 15 km/h 70% 0.00 mm 207.00 W/m2 unknown
11:54 5.4 °C 0.2 °C 1035.5 hPa SE 9 km/h 13 km/h 69% 0.00 mm 172.00 W/m2 unknown
11:59 5.4 °C 0.0 °C 1035.4 hPa SE 9 km/h 13 km/h 68% 0.00 mm 174.00 W/m2 unknown
12:04 5.4 °C 0.2 °C 1035.4 hPa SSE 8 km/h 13 km/h 69% 0.00 mm 179.00 W/m2 unknown
12:09 5.7 °C 0.4 °C 1035.3 hPa SSE 5 km/h 13 km/h 69% 0.00 mm 193.00 W/m2 unknown
12:14 5.8 °C 0.4 °C 1035.2 hPa ESE 5 km/h 11 km/h 69% 0.00 mm 216.00 W/m2 unknown
12:19 5.9 °C 0.2 °C 1035.2 hPa SE 8 km/h 15 km/h 67% 0.00 mm 216.00 W/m2 unknown
12:24 5.9 °C 0.0 °C 1035.2 hPa SE 13 km/h 19 km/h 66% 0.00 mm 218.00 W/m2 unknown
12:29 5.9 °C 0.0 °C 1035.1 hPa SE 11 km/h 19 km/h 66% 0.00 mm 218.00 W/m2 unknown
12:34 6.0 °C 0.1 °C 1035.1 hPa SE 14 km/h 19 km/h 66% 0.00 mm 223.00 W/m2 unknown
12:39 5.9 °C -0.2 °C 1035.1 hPa SE 9 km/h 15 km/h 65% 0.00 mm 227.00 W/m2 unknown
12:44 5.9 °C -0.2 °C 1035.0 hPa SSE 8 km/h 15 km/h 65% 0.00 mm 241.00 W/m2 unknown
12:49 6.0 °C -0.2 °C 1035.0 hPa South 8 km/h 13 km/h 65% 0.00 mm 241.00 W/m2 unknown
12:54 6.0 °C -0.1 °C 1035.0 hPa SE 7 km/h 13 km/h 65% 0.00 mm 244.00 W/m2 unknown
12:59 5.9 °C -0.1 °C 1034.8 hPa ESE 9 km/h 11 km/h 65% 0.00 mm 257.00 W/m2 unknown
13:04 6.1 °C 0.2 °C 1034.7 hPa SE 13 km/h 17 km/h 66% 0.00 mm 253.00 W/m2 unknown
13:09 6.2 °C 0.1 °C 1034.6 hPa South 5 km/h 16 km/h 65% 0.00 mm 248.00 W/m2 unknown
13:14 6.2 °C -0.1 °C 1034.5 hPa East 10 km/h 13 km/h 65% 0.00 mm 207.00 W/m2 unknown
13:19 6.2 °C 0.1 °C 1034.4 hPa East 11 km/h 13 km/h 65% 0.00 mm 229.00 W/m2 unknown
13:24 6.3 °C 0.4 °C 1034.3 hPa ESE 9 km/h 13 km/h 66% 0.00 mm 229.00 W/m2 unknown
13:29 6.3 °C 0.2 °C 1034.2 hPa ESE 11 km/h 15 km/h 65% 0.00 mm 234.00 W/m2 unknown
13:34 6.4 °C 0.2 °C 1034.1 hPa SE 7 km/h 15 km/h 65% 0.00 mm 251.00 W/m2 unknown
13:39 6.5 °C 0.4 °C 1034.0 hPa East 11 km/h 15 km/h 65% 0.00 mm 253.00 W/m2 unknown
13:44 6.4 °C 0.5 °C 1034.0 hPa ENE 11 km/h 15 km/h 66% 0.00 mm 232.00 W/m2 unknown
13:49 6.4 °C 0.6 °C 1033.8 hPa NE 10 km/h 15 km/h 66% 0.00 mm 223.00 W/m2 unknown
13:54 6.5 °C 0.6 °C 1033.7 hPa ENE 10 km/h 15 km/h 66% 0.00 mm 272.00 W/m2 unknown
13:59 6.6 °C 0.6 °C 1033.6 hPa East 15 km/h 19 km/h 66% 0.00 mm 318.00 W/m2 unknown
14:04 6.6 °C 0.6 °C 1033.5 hPa East 14 km/h 21 km/h 66% 0.00 mm 311.00 W/m2 unknown
Stazione Meteorologica MeteoMincio Rivalta s/M (MN)
Con i complimenti di Weather Underground - 2 mb



GLOSSARIO METEOROLOGICO
Indice di calore (Heat Index)
Utilizza la temperatura e l'umidità relativa per determinare la sensazione di calore dell'aria. Quando l'umidità è bassa, la temperatura apparente sarà minore della temperatura dell'aria, dal momento che la traspirazione evapora rapidamente e raffredda il corpo. Quando l'umidità è alta, la temperatura apparente sembrerà più alta dell'attuale temperatura dell'aria, perchè la traspirazione del corpo evapora più lentamente.
Share

Do NOT follow this link or you will be banned from the site!